Погода в Бредах

Россия / Челябинская область     52°25′20″N   60°20′12″E
В апреле 2022 года жителям России запретили посещать сайт meteo.paraplan.net по решению Генеральной прокуратуры. Аудитория сайта уменьшилась в 10 раз. Владельцы сайта не видят смысла в поддержке погодного сервера в таких условиях. Сайт будет закрыт в октябре.
темп.,
°C
ветер,
м/с
пор.,
м/с
влажн.,
%
обл.,
%
осадки,
мм/ч
давл.,
гПа
погр.,
м
30 сентября, пт
пт3023:00+1юв5899100 3.3 1028256
02:000вюв51098100 1.2 1028311
05:000юв61098100 2.4 1029365
08:000юв5898100 0.5 1030435
11:00+1юв689198 0.9 1032594
14:00+3юв677998 0.1 1032776
17:00+5юв466396 0.1 1032943
20:00+4юв237180 0.0 103357
1 октября, сб
сб123:00+3ююв117988 0.0 103423
02:00+3вюв3763100 0.0 1034222
05:00+3юв4858100 0.0 1035252
08:00+3юв3758100 0.0 1035236
11:00+4юв4745100 0.0 1036414
14:00+6ююв5637100 0.0 1034697
17:00+6ю3542100 0.0 1034431
20:00+5ю2549100 0.0 1034153
2 октября, вс
вс223:00+5ю2650100 0.0 1033205
02:00+5ююв3748100 0.0 1032222
05:00+5ю3749100 0.0 1032220
08:00+5ю3747100 0.0 1032238
11:00+6ююв3642100 0.0 1032304
14:00+7ююв4740100 0.0 1031380
17:00+7ююв3639100 0.0 1030282
20:00+7ююв354090 0.0 1030132
3 октября, пн
пн323:00+6ююв354055 0.0 102997
02:00+7ю344082 0.0 102969
05:00+7ю3441100 0.0 102979
08:00+7ю3441100 0.0 102987
11:00+9ю343299 0.0 1029285
14:00+12ю332712 0.0 1029719
17:00+13ююв12305 0.0 1028834
20:00+9юв22395 0.0 103011
4 октября, вт
вт423:00+7ююв22401 0.0 103117
02:00+6ююв22390 0.0 103114
05:00+5ююв22385 0.0 103211
08:00+4ююв12390 0.0 103311
11:00+9юв33274 0.0 1034445
14:00+12юв34215 0.0 1034830
17:00+12юв332212 0.0 1033822
20:00+8вюв22305 0.0 103512